Date String (YYYY-MM-DD hh:mm:ss) UTC,Instrument flags,Ambient pressure (hPa),Sample flow (lpm),Bypass flow (lpm),Sample temperature (°C),Ambient temperature (°C),ASC tube jacket temperature (°C),LED temperature (°C),Box temperature (°C),Sample RH (%),Span deviation,Mass concentration (μg/m³),Mass concentration (μg/m³),Mass concentration (μg/m³)
DateTimeUTC,F1_M11,P_M11,Q1_M11,Q2_M11,T1_M11,T2_M11,T3_M11,T4_M11,T5_M11,U1_M11,ZSPAN_M11,X2_M11,X0_M11,X1_M11
2022-03-03 15:00:00,,0827.7,5.00,0.00,25.8,25.1,00.0,34.8,27.7,08.7,0000.0,0001.25,0001.70,0000.98
2022-03-03 15:01:00,,0827.7,4.99,0.00,25.8,25.1,00.0,34.8,27.7,08.6,0000.0,0001.25,0001.69,0000.99
2022-03-03 15:02:00,,0827.8,5.01,0.00,25.8,25.1,00.0,34.8,27.7,08.7,0000.0,0001.25,0001.69,0001.00
2022-03-03 15:03:00,,0827.7,5.02,0.00,25.9,25.1,00.0,34.8,27.7,08.9,0000.0,0001.26,0001.72,0001.00
2022-03-03 15:04:00,,0827.7,4.99,0.00,25.9,25.1,00.0,34.8,27.7,09.1,0000.0,0001.26,0001.72,0001.00
2022-03-03 15:05:00,,0827.7,5.01,0.00,25.9,25.1,00.0,34.8,27.7,09.4,0000.0,0001.29,0002.31,0001.01
2022-03-03 15:06:00,,0827.7,5.00,0.00,25.9,25.1,00.0,34.8,27.7,09.4,0000.0,0001.32,0002.39,0001.02
2022-03-03 15:07:00,,0827.7,5.00,0.00,25.9,25.1,00.0,34.9,27.7,09.3,0000.0,0001.33,0002.75,0001.03
2022-03-03 15:08:00,,0827.7,5.01,0.00,25.9,25.1,00.0,34.8,27.7,09.4,0000.0,0001.37,0004.23,0001.05
2022-03-03 15:09:00,,0827.7,5.00,0.00,25.9,25.1,00.0,34.8,27.7,09.3,0000.0,,,
2022-03-03 15:22:00,,0827.8,5.09,0.00,25.9,25.1,00.0,34.9,27.7,09.2,0000.0,0001.65,0004.08,0001.17
2022-03-03 15:23:00,,0827.8,5.00,0.00,25.9,25.1,00.0,34.9,27.7,09.4,0000.0,0001.64,0003.99,0001.17
2022-03-03 15:24:00,,0827.8,5.00,0.00,25.9,25.1,00.0,34.9,27.8,09.8,0000.0,0001.68,0004.33,0001.17
2022-03-03 15:25:00,,0827.9,5.00,0.00,25.9,25.1,00.0,34.9,27.8,10.0,0000.0,0001.72,0004.56,0001.20
2022-03-03 15:26:00,,0827.8,5.00,0.00,25.9,25.1,00.0,34.9,27.8,10.1,0000.0,0001.77,0004.66,0001.24
2022-03-03 15:27:00,,0827.9,5.01,0.00,25.9,25.1,00.0,34.9,27.8,10.1,0000.0,0001.83,0005.25,0001.28
2022-03-03 15:28:00,,0827.9,4.99,0.00,25.9,25.2,00.0,34.9,27.7,10.2,0000.0,0001.89,0005.40,0001.33
2022-03-03 15:29:00,,0827.9,5.00,0.00,25.9,25.2,00.0,34.9,27.7,10.3,0000.0,0001.94,0005.50,0001.37
2022-03-03 15:30:00,,0827.9,5.00,0.00,25.9,25.2,00.0,34.9,27.7,10.2,0000.0,0001.99,0005.63,0001.41
2022-03-03 15:31:00,,0827.9,5.01,0.00,25.9,25.2,00.0,34.9,27.7,10.1,0000.0,0002.03,0005.40,0001.45
2022-03-03 15:32:00,,0827.9,5.01,0.00,25.9,25.2,00.0,34.9,27.7,10.6,0000.0,0002.01,0005.61,0001.49
2022-03-03 15:33:00,,0827.9,5.00,0.00,26.0,25.2,00.0,34.9,27.8,11.2,0000.0,0002.06,0005.82,0001.54
2022-03-03 15:34:00,,0827.9,5.01,0.00,26.0,25.2,00.0,34.9,27.8,10.9,0000.0,0002.22,0006.08,0001.62
2022-03-03 15:35:00,,0827.9,4.99,0.00,26.0,25.2,00.0,34.9,27.8,10.9,0000.0,0002.28,0005.86,0001.70
2022-03-03 15:36:00,,0827.9,5.01,0.00,26.0,25.2,00.0,34.9,27.8,11.1,0000.0,0002.36,0006.70,0001.76
2022-03-03 15:37:00,,0827.9,5.00,0.00,26.0,25.2,00.0,34.9,27.8,11.2,0000.0,0002.39,0007.69,0001.78
2022-03-03 15:38:00,,0827.9,5.01,0.00,26.0,25.2,00.0,34.9,27.8,10.9,0000.0,0002.38,0007.41,0001.81
2022-03-03 15:39:00,,0828.0,5.01,0.00,26.0,25.2,00.0,34.9,27.8,11.0,0000.0,0002.40,0007.48,0001.84
2022-03-03 15:40:00,,0828.0,5.00,0.00,26.0,25.2,00.0,34.9,27.8,11.2,0000.0,0002.45,0007.95,0001.87
2022-03-03 15:41:00,,0827.9,4.98,0.00,26.0,25.3,00.0,34.9,27.8,11.0,0000.0,0002.49,0008.19,0001.89
2022-03-03 15:42:00,,0827.9,5.01,0.00,26.0,25.3,00.0,34.9,27.8,11.1,0000.0,0002.53,0008.22,0001.91
2022-03-03 15:43:00,,0827.9,5.01,0.00,26.0,25.3,00.0,35.0,27.8,11.0,0000.0,0002.56,0007.91,0001.91
2022-03-03 15:44:00,,0827.9,4.98,0.00,26.0,25.3,00.0,35.0,27.8,11.1,0000.0,0002.50,0007.63,0001.90
2022-03-03 15:45:00,,0827.9,5.01,0.00,26.0,25.3,00.0,35.0,27.8,11.1,0000.0,0002.41,0007.54,0001.87
2022-03-03 15:46:00,,0827.8,5.00,0.00,26.0,25.3,00.0,35.0,27.8,10.9,0000.0,0002.33,0007.47,0001.82
2022-03-03 15:47:00,,0827.8,5.01,0.00,26.0,25.3,00.0,35.0,27.8,10.6,0000.0,0002.24,0006.72,0001.77
2022-03-03 15:48:00,,0827.9,4.99,0.00,26.1,25.3,00.0,35.0,27.9,10.3,0000.0,0002.21,0005.11,0001.75
2022-03-03 15:49:00,,0827.9,5.01,0.00,26.1,25.3,00.0,35.0,27.9,10.0,0000.0,0002.22,0005.15,0001.73
2022-03-03 15:50:00,,0827.9,5.01,0.00,26.1,25.3,00.0,35.0,27.9,09.8,0000.0,0002.21,0005.80,0001.70
2022-03-03 15:51:00,,0827.9,4.99,0.00,26.1,25.3,00.0,35.0,27.9,09.6,0000.0,0002.14,0005.02,0001.65
2022-03-03 15:52:00,,0827.9,4.99,0.00,26.1,25.3,00.0,35.0,27.9,09.6,0000.0,0002.07,0004.38,0001.60
2022-03-03 15:53:00,,0828.0,5.01,0.00,26.1,25.3,00.0,35.0,27.9,09.5,0000.0,0001.97,0004.15,0001.55
2022-03-03 15:54:00,,0827.9,5.01,0.00,26.1,25.3,00.0,35.0,27.9,09.5,0000.0,0001.92,0004.31,0001.51
2022-03-03 15:55:00,,0827.9,5.00,0.00,26.1,25.3,00.0,35.0,28.0,09.5,0000.0,0001.88,0004.89,0001.49
2022-03-03 15:56:00,,0827.9,4.99,0.00,26.1,25.3,00.0,35.0,27.9,09.5,0000.0,0001.83,0004.84,0001.44
2022-03-03 15:57:00,,0828.0,5.01,0.00,26.1,25.4,00.0,35.0,27.9,10.1,0000.0,0001.79,0004.88,0001.42
2022-03-03 15:58:00,,0827.9,5.01,0.00,26.1,25.4,00.0,35.0,27.9,11.5,0000.0,0001.78,0005.33,0001.41
2022-03-03 15:59:00,,0828.0,4.98,0.00,26.1,25.4,00.0,35.1,28.0,12.6,0000.0,0001.78,0005.36,0001.40
